Flag for Seychelles Weather past 2 weeks in Victoria, Seychelles

Now
79 °F

Passing clouds.


Feels Like: 82 °F
Forecast: 78 / 81 °F
Wind: No wind

Location: National Airport

Current Time: Jun 4, 2015 at 1:47:31 AM

Latest Report: Jun 4, 2015 at 1:00 AM


Visibility: N/A

Pressure: 29.80 "Hg

Humidity: 89%

Dew point: 75 °F

Location of VictoriaLocation

Historic Weather in Victoria — Graph

°F

Victoria temperature yesterday

Maximum temperature yesterday: 88 °F (at 1:00 PM)
Minimum temperature yesterday: 79 °F (at 2:00 AM)
Average temperature yesterday: 83 °F

Past Weeks' High & Low Weather Summary

 TemperatureHumidityPressure
High90 °F (May 27, 10:00 AM)100% (May 22, 12:00 PM)29.92 "Hg (May 22, 12:00 PM)
Low75 °F (May 22, 12:00 PM)63% (Jun 2, 1:00 PM)29.74 "Hg (Jun 1, 2:00 PM)
Average83 °F82%29.84 "Hg
* Reported Midnight between May 19 and May 20 — Midnight between Jun 3 and Jun 4, Victoria, Weather by CustomWeather, © 2015

Note: Actual official high and low records may vary slightly from our data, if they occured in-between our weather recording intervals... More about our weather records

Advertising

Victoria weather history for previous 24 hours

 ConditionsComfort  
Time TempWeatherWind HumidityBarometerVisibility
12:00 AM
Thu, Jun 4
79 °FPassing clouds.No wind89%29.80 "HgN/A
11:00 PM
Wed, Jun 3
81 °FPassing clouds.No wind84%29.83 "HgN/A
10:00 PM81 °FPassing clouds.No wind84%29.83 "HgN/A
9:00 PM82 °FPassing clouds.No wind79%29.83 "HgN/A
8:00 PM81 °FPassing clouds.No wind84%29.80 "HgN/A
7:00 PM82 °FPassing clouds.No wind79%29.80 "HgN/A
6:00 PM84 °FPartly sunny.3 mph74%29.77 "HgN/A
5:00 PM84 °FPartly sunny.5 mph74%29.74 "HgN/A
4:00 PM86 °FSprinkles. Broken clouds.8 mph75%29.74 "HgN/A
3:00 PM86 °FRain showers. Broken clouds.3 mph70%29.74 "HgN/A
2:00 PM88 °FBroken clouds.5 mph70%29.77 "HgN/A
1:00 PM88 °FBroken clouds.7 mph66%29.77 "HgN/A
12:00 PM86 °FPartly sunny.6 mph75%N/AN/A
11:00 AM86 °FSprinkles. Partly sunny.2 mph75%29.83 "HgN/A
10:00 AM84 °FPartly sunny.14 mph79%29.83 "HgN/A
9:00 AM84 °FSprinkles. Partly sunny.14 mph79%29.86 "HgN/A
8:00 AM82 °FSprinkles. Partly sunny.5 mph84%29.83 "HgN/A
7:00 AM81 °FSprinkles. Partly sunny.No wind89%29.80 "HgN/A
6:00 AM81 °FSprinkles. Passing clouds.3 mph89%29.80 "HgN/A
5:00 AM81 °FPassing clouds.8 mph89%29.77 "HgN/A
4:00 AM79 °FPassing clouds.5 mph94%29.77 "HgN/A
3:00 AM79 °FPassing clouds.No wind94%29.77 "HgN/A
2:00 AM79 °FPassing clouds.No wind94%29.80 "HgN/A
1:00 AM81 °FSprinkles. Passing clouds.2 mph89%29.80 "HgN/A
Weather by CustomWeather, © 2015

See weather overviewHow to use our weather pages